Date,TemperatureHighF,TemperatureAvgF,TemperatureLowF,DewpointHighF,DewpointAvgF,DewpointLowF,HumidityHigh,HumidityAvg,HumidityLow,PressureMaxIn,PressureMinIn,WindSpeedMaxMPH,WindSpeedAvgMPH,GustSpeedMaxMPH,PrecipitationSumIn
2013-1-1,49.3,46.2,43.3,49.0,44.0,39.7,99,92,80,29.89,29.47,11,6,30,0.28
2013-1-2,48.2,45.4,41.2,46.3,44.0,40.9,99,95,87,30.25,29.89,15,6,24,0.01
2013-1-3,53.4,51.0,46.6,53.1,50.7,46.3,99,99,98,30.56,30.23,14,9,23,0.00
2013-1-4,51.6,49.7,47.1,51.3,49.4,46.9,99,99,99,30.58,30.53,12,7,21,0.01
2013-1-5,48.6,47.7,46.4,48.3,47.4,46.1,99,99,99,30.56,30.47,8,4,16,0.00
2013-1-6,52.0,48.4,45.3,51.1,48.0,45.1,99,99,95,30.47,30.41,10,5,17,0.01
2013-1-7,47.7,45.6,43.2,47.4,45.3,42.9,99,99,99,30.42,30.27,13,3,21,0.00
2013-1-8,48.2,46.1,43.5,47.9,45.9,43.3,99,99,99,30.27,30.20,11,5,22,0.00
2013-1-9,47.3,44.8,40.8,47.0,44.4,40.6,99,99,94,30.20,30.03,10,4,21,0.06
2013-1-10,46.4,43.3,38.1,43.7,41.9,37.9,99,95,82,30.03,29.86,10,4,20,0.08
2013-1-11,40.8,35.2,28.9,37.3,32.8,28.7,99,92,67,30.09,29.92,10,2,22,0.00
2013-1-12,38.1,34.3,30.4,32.3,29.4,27.0,99,82,67,30.08,30.02,7,3,16,0.00
2013-1-13,34.9,29.4,25.7,29.6,27.3,24.9,99,92,71,30.11,30.05,9,6,21,0.00
2013-1-14,31.1,27.7,23.0,30.0,27.1,22.8,99,98,89,30.06,29.67,6,3,15,0.00
2013-1-15,29.5,27.9,25.9,29.2,27.4,21.7,99,98,86,29.83,29.61,8,5,17,0.00
2013-1-16,32.2,22.6,14.0,27.4,20.2,13.2,99,91,71,30.01,29.81,4,1,11,0.01
2013-1-17,26.1,22.4,15.8,25.8,22.1,15.6,99,99,95,30.12,30.01,4,1,10,0.01
2013-1-18,33.1,29.6,23.0,30.5,28.3,22.8,99,95,87,30.05,29.59,7,3,15,0.00
2013-1-19,30.0,26.8,24.3,26.9,22.6,18.9,89,84,71,29.59,29.48,11,7,23,0.00
2013-1-20,27.9,24.7,23.7,27.6,22.4,19.5,99,91,81,29.51,29.31,12,8,25,0.00
2013-1-21,32.9,29.9,26.8,32.7,29.7,26.5,99,99,99,29.57,29.34,4,3,15,0.00
2013-1-22,33.3,27.3,20.8,29.2,26.0,20.6,99,95,81,29.76,29.57,5,3,11,0.00
2013-1-23,20.8,20.8,20.8,20.6,20.6,20.6,99,99,99,29.76,29.76,4,4,8,0.00
2013-1-24,24.3,20.9,20.8,22.5,20.7,20.6,99,99,93,30.14,29.76,4,4,8,0.00
2013-1-25,32.7,25.0,16.9,31.4,23.2,16.7,99,93,84,30.15,29.83,11,3,23,0.00
2013-1-26,31.1,29.4,26.4,30.9,28.1,23.9,99,95,87,29.83,29.73,10,4,20,0.00
2013-1-27,31.1,31.1,31.1,30.9,30.9,30.9,99,99,99,29.76,29.76,2,2,12,0.00
2013-1-28,31.1,31.1,31.1,30.9,30.9,30.9,99,99,99,29.76,29.76,2,2,12,0.00
2013-1-29,31.1,31.1,31.1,30.9,30.9,30.9,99,99,99,29.76,29.76,2,2,12,0.00
2013-1-30,49.3,34.8,31.1,42.4,33.3,30.9,99,95,76,29.89,29.73,25,6,38,0.45
2013-1-31,51.1,46.9,44.2,47.9,43.1,40.0,98,87,76,29.96,29.71,29,17,49,0.01
2013-2-1,46.9,42.4,38.3,44.8,41.5,38.0,99,97,83,29.82,29.37,18,5,31,0.13
2013-2-2,43.7,40.9,37.8,41.6,37.9,34.1,99,90,69,30.05,29.42,11,7,26,0.05
2013-2-3,43.2,40.1,37.8,42.9,37.7,34.0,99,91,76,30.11,29.86,22,10,37,0.01
2013-2-4,51.1,47.4,45.0,48.6,43.2,37.9,99,86,63,29.82,29.71,20,14,36,0.01
2013-2-5,45.0,39.9,34.5,42.2,35.6,32.3,99,85,71,29.71,29.30,24,10,100,0.09
2013-2-6,44.4,37.3,33.1,39.8,35.7,32.8,99,94,70,29.76,29.24,13,5,21,0.21
2013-2-7,43.2,38.6,34.7,39.3,36.6,34.4,99,93,80,29.89,29.76,13,7,22,0.08
2013-2-8,42.6,35.8,32.7,36.6,33.2,28.3,99,91,59,30.09,29.86,12,3,18,0.04
2013-2-9,40.1,34.6,32.2,36.5,33.4,30.5,99,95,75,30.12,29.96,14,1,24,0.00
2013-2-10,37.0,33.3,30.7,33.2,29.5,24.7,99,86,71,29.96,29.57,10,5,35,18.89
2013-2-11,34.7,31.4,28.6,26.3,23.5,21.0,86,73,63,29.78,29.50,8,6,21,0.00
2013-2-12,36.3,31.2,26.2,31.5,25.8,23.3,95,81,62,29.94,29.56,8,4,17,0.00
2013-2-13,41.2,32.7,27.9,32.4,29.3,27.6,99,88,61,30.25,29.75,5,2,13,12.09
2013-2-14,36.0,32.3,29.8,35.7,28.9,22.4,99,88,69,30.22,29.85,14,5,28,0.06
2013-2-15,48.6,40.5,35.6,45.2,39.9,35.3,99,98,88,30.16,29.89,8,3,16,0.01
2013-2-16,47.7,42.9,39.2,46.2,42.1,38.9,99,97,88,30.26,30.16,5,1,8,0.05
2013-2-17,51.8,40.7,23.5,41.6,38.4,32.8,99,91,64,30.26,30.20,5,2,11,0.09
2013-2-18,52.7,38.9,32.2,45.6,36.0,31.9,99,91,56,30.20,30.14,4,1,8,0.00
2013-2-19,43.5,38.5,20.7,41.3,37.6,18.5,99,97,85,30.15,30.03,10,3,18,0.00
2013-2-20,39.6,34.0,30.2,33.8,28.8,24.9,99,82,62,30.33,30.15,10,6,20,0.00
2013-2-21,36.9,31.3,28.2,29.0,26.3,21.5,96,83,57,30.33,30.20,12,7,27,0.00
2013-2-22,34.3,29.8,25.9,28.5,25.0,19.8,99,83,67,30.20,30.07,15,8,26,0.00
2013-2-23,34.0,30.1,25.0,28.7,24.4,20.5,87,79,68,30.11,30.06,15,10,31,0.00
2013-2-24,34.3,33.0,30.6,33.9,32.4,28.4,99,98,84,30.14,30.06,12,7,24,0.08
2013-2-25,37.9,35.7,34.0,37.7,35.5,33.7,99,99,99,30.32,30.14,13,8,26,0.01
2013-2-26,42.1,38.0,35.2,40.0,37.5,35.0,99,98,92,30.53,30.33,11,6,19,0.00
2013-2-27,37.2,34.8,33.4,35.4,34.0,33.1,99,97,90,30.54,30.46,11,7,20,0.00
2013-2-28,43.3,36.4,33.3,37.7,34.9,33.0,99,94,77,30.46,30.35,7,4,14,0.00
2013-3-1,42.4,39.3,37.2,40.6,36.3,33.4,99,89,75,30.36,30.31,9,4,18,0.00
2013-3-2,41.9,38.4,36.5,35.1,33.9,32.7,91,84,72,30.35,30.26,5,2,11,0.00
2013-3-3,44.8,40.8,36.3,44.3,38.3,34.2,99,91,81,30.27,30.19,6,3,13,0.00
2013-3-4,56.1,42.4,32.5,39.1,34.9,31.8,98,77,52,30.19,29.86,4,3,16,0.00
2013-3-5,66.4,48.7,35.2,40.6,35.6,30.3,90,65,30,29.86,29.67,7,3,19,0.00
2013-3-6,61.9,51.6,42.6,47.4,41.0,36.7,80,68,48,29.67,29.54,6,2,11,0.00
2013-3-7,54.9,49.6,45.1,46.3,41.8,38.7,97,75,59,29.55,29.45,6,4,13,0.01
2013-3-8,59.0,51.0,46.8,52.0,48.6,45.2,99,92,78,29.48,29.45,7,5,15,0.02
2013-3-9,46.4,42.4,36.1,46.1,42.2,35.3,99,99,99,29.53,29.42,12,5,21,0.74
2013-3-10,35.6,33.6,31.6,35.3,31.5,24.6,99,92,75,29.74,29.52,15,8,26,0.07
2013-3-11,31.8,30.1,28.2,27.2,24.9,23.4,89,81,72,29.78,29.74,16,12,34,0.00
2013-3-12,35.6,29.4,25.3,23.8,20.2,15.4,87,70,47,29.78,29.71,18,12,35,0.00
2013-3-13,45.0,33.3,22.5,36.6,29.1,19.0,99,85,67,29.81,29.68,8,3,15,0.01
2013-3-14,43.7,34.5,27.9,32.7,27.9,22.3,99,79,45,29.99,29.79,7,3,15,0.00
2013-3-15,39.7,34.6,26.8,36.8,32.5,26.1,99,92,81,29.97,29.79,6,3,21,0.04
2013-3-16,46.8,42.2,38.5,37.3,33.1,28.4,89,71,54,29.79,29.52,14,7,29,0.04
2013-3-17,51.1,44.5,39.9,43.5,40.5,32.3,99,86,68,29.52,29.24,10,5,33,0.02
2013-3-18,52.0,43.7,38.5,44.5,40.6,38.2,99,90,63,29.32,29.22,6,2,24,0.06
2013-3-19,46.4,40.4,35.2,43.4,39.0,35.0,99,95,85,29.56,29.32,6,2,11,0.05
2013-3-20,38.3,35.7,33.4,37.0,32.5,28.6,97,88,79,29.97,29.55,12,6,24,0.00
2013-3-21,45.9,36.4,30.0,39.0,31.2,28.5,98,82,56,30.12,29.98,6,2,11,0.00
2013-3-22,42.8,34.8,28.0,31.4,29.0,25.5,99,81,61,30.12,29.94,14,8,32,0.00
2013-3-23,38.1,33.8,30.0,26.6,21.8,13.4,78,62,47,30.00,29.93,15,12,32,0.00
2013-3-24,38.3,32.2,27.3,13.7,5.7,-5.5,52,36,18,30.02,29.95,16,12,30,0.00
2013-3-25,43.3,34.9,28.9,17.2,14.1,8.1,59,45,26,30.02,29.92,17,11,32,0.00
2013-3-26,45.7,35.4,27.1,19.6,15.7,8.7,70,48,25,29.98,29.89,12,8,29,0.00
2013-3-27,47.5,35.5,25.2,23.6,18.6,10.9,88,55,26,29.93,29.82,9,5,22,0.00
2013-3-28,41.9,33.7,27.1,29.5,23.4,19.2,89,67,49,29.87,29.81,13,7,24,0.00
2013-3-29,41.9,33.3,26.4,32.1,28.8,25.9,99,85,56,29.85,29.78,6,2,13,0.00
2013-3-30,42.3,34.3,27.7,34.5,29.4,27.4,99,84,59,29.91,29.77,10,3,18,0.00
2013-3-31,45.1,35.8,28.9,33.4,29.4,25.5,98,79,51,29.96,29.91,10,4,18,0.00
2013-4-1,48.4,37.7,28.6,30.9,26.2,15.0,99,69,30,29.94,29.85,13,8,27,0.00
2013-4-2,50.9,39.3,28.6,29.9,21.8,10.1,86,57,23,30.00,29.89,16,10,36,0.00
2013-4-3,47.5,39.2,31.5,29.6,23.4,18.3,78,56,34,30.06,29.96,14,8,27,0.00
2013-4-4,42.4,37.8,32.9,32.9,28.1,24.3,81,68,56,29.99,29.87,15,8,29,0.00
2013-4-5,47.7,40.6,35.6,32.6,29.9,26.4,83,67,45,30.01,29.86,14,10,30,0.00
2013-4-6,51.4,41.5,33.1,35.5,30.7,23.3,90,69,37,30.26,30.01,12,7,24,0.00
2013-4-7,52.7,40.2,31.1,39.8,30.5,25.1,99,73,40,30.27,29.99,7,2,11,0.00
2013-4-8,55.4,46.4,33.8,32.7,28.6,22.5,84,53,31,29.98,29.61,8,4,17,0.00
2013-4-9,54.0,46.2,39.2,47.2,40.6,26.9,98,82,53,29.61,29.46,7,3,16,0.00
2013-4-10,48.6,43.7,37.8,46.7,42.5,36.2,99,95,86,29.73,29.49,9,3,22,0.00
2013-4-11,49.8,44.8,41.0,49.6,44.5,40.0,99,99,95,29.65,29.39,16,6,34,0.17
2013-4-12,56.8,47.4,40.3,54.3,46.2,40.0,99,96,76,29.64,29.46,16,5,37,0.18
2013-4-13,61.7,49.1,41.7,51.6,46.3,41.5,99,91,54,30.05,29.64,14,6,26,0.05
2013-4-14,76.1,62.5,51.8,57.2,54.3,51.5,99,78,48,30.10,29.98,12,4,27,0.02
2013-4-15,63.9,57.0,46.9,57.0,52.4,45.9,99,85,71,30.12,29.97,12,5,24,0.22
2013-4-16,62.2,53.8,46.4,55.6,50.8,45.6,99,91,63,30.11,30.01,21,7,36,0.00
2013-4-17,70.9,59.3,48.7,58.2,52.8,48.5,99,82,49,30.14,29.83,10,2,19,0.00
2013-4-18,66.7,56.1,49.5,53.8,46.2,38.8,91,71,50,30.02,29.78,35,18,65,0.00
2013-4-19,53.6,48.3,41.2,49.4,44.7,40.4,97,88,73,30.45,30.03,17,8,30,0.09
2013-4-20,54.9,45.8,35.6,42.9,37.3,34.1,99,76,49,30.53,30.37,16,7,27,0.00
2013-4-21,63.1,47.3,35.6,43.2,37.7,32.9,99,73,38,30.37,30.04,8,3,13,0.00
2013-4-22,60.4,49.3,36.1,47.9,42.6,34.9,99,80,55,30.05,29.98,15,4,25,0.00
2013-4-23,61.2,53.4,49.5,54.9,50.5,42.9,99,91,70,30.23,29.98,14,7,30,0.01
2013-4-24,67.3,56.4,47.7,56.1,52.2,46.9,99,87,62,30.26,30.21,18,6,30,0.00
2013-4-25,74.5,57.2,50.9,57.8,53.3,50.6,99,89,54,30.26,29.99,14,2,22,0.00
2013-4-26,58.3,48.4,42.6,52.2,47.4,42.4,99,96,79,29.99,29.84,9,4,21,0.18
2013-4-27,52.9,43.8,37.8,43.0,41.5,33.7,99,92,67,30.02,29.84,12,3,19,0.09
2013-4-28,61.0,48.4,38.7,44.6,40.0,36.7,99,76,48,30.07,29.93,10,2,18,0.00
2013-4-29,56.8,49.4,43.5,49.0,41.6,36.4,99,77,52,30.13,29.87,15,6,27,0.06
2013-4-30,58.6,50.6,43.0,47.7,44.0,40.3,99,80,55,30.29,30.13,12,5,25,0.09
2013-5-1,65.3,52.8,38.8,46.1,42.0,38.6,99,71,42,30.30,30.14,11,6,24,0.00
2013-5-2,62.8,53.6,47.1,48.2,44.7,40.0,84,72,54,30.17,30.10,14,9,24,0.00
2013-5-3,69.1,57.4,44.6,53.6,48.5,43.2,96,74,52,30.12,30.03,7,4,14,0.00
2013-5-4,68.7,55.2,46.4,53.8,47.7,43.4,99,78,51,30.14,29.99,22,10,38,0.00
2013-5-5,72.1,58.2,46.8,54.0,48.8,45.0,99,75,47,30.21,30.13,6,2,14,0.00
2013-5-6,74.5,59.9,47.3,54.1,50.2,46.9,99,74,45,30.21,30.06,9,3,15,0.00
2013-5-7,79.7,64.0,51.6,63.7,55.3,50.0,99,77,38,30.07,29.90,10,4,116,0.07
2013-5-8,75.7,63.3,56.8,64.1,59.2,53.2,99,88,50,29.90,29.73,14,3,24,0.19
2013-5-9,64.2,57.2,52.2,57.1,50.1,43.1,99,80,52,29.91,29.81,15,6,27,1.70
2013-5-10,62.4,56.5,51.6,53.9,50.7,44.6,99,82,65,29.97,29.76,38,10,125,0.00
2013-5-11,58.8,53.4,50.2,54.5,50.8,8.8,99,92,19,29.96,29.79,20,6,42,0.14
2013-5-12,56.3,51.0,47.8,51.4,48.8,46.3,99,93,75,29.99,29.80,17,9,26,0.04
2013-5-13,47.8,47.7,47.7,47.6,47.4,47.4,99,99,99,29.94,29.78,64,24,64,0.00
2013-5-14,47.7,47.7,47.7,47.4,47.4,47.4,99,99,99,29.78,29.55,24,24,27,0.00
2013-5-15,47.7,47.7,47.7,47.4,47.4,47.4,99,99,99,29.60,29.40,24,24,27,0.00
2013-5-16,47.7,47.7,47.7,47.4,47.4,47.4,99,99,99,29.60,29.45,24,24,27,0.00
2013-5-17,47.7,47.7,47.7,47.4,47.4,47.4,99,99,99,29.69,29.49,24,24,27,0.00
2013-5-18,47.7,47.7,47.7,47.4,47.4,47.4,99,99,99,29.83,29.68,24,24,27,0.00
2013-5-19,47.7,47.7,47.7,47.4,47.4,47.4,99,99,99,29.85,29.80,24,24,27,0.00
2013-5-20,47.7,47.7,47.7,47.4,47.4,47.4,99,99,99,29.80,29.73,24,24,27,0.00
2013-5-21,47.7,32.5,32.0,47.5,47.5,47.4,99,3,99,29.90,29.78,24,1,27,0.00
2013-5-22,32.0,32.0,32.0,47.5,47.5,47.5,0,0,100,29.90,29.90,0,0,0,0.00
2013-5-23,51.4,46.8,32.0,42.8,40.7,32.0,95,76,67,29.95,29.79,9,5,18,0.00
2013-5-24,58.3,46.9,41.4,47.9,43.5,40.9,99,89,64,30.10,29.90,6,2,24,0.20
2013-5-25,54.7,47.9,40.5,49.2,44.9,40.2,99,90,76,30.17,30.10,10,5,19,0.05
2013-5-26,55.0,49.8,46.2,49.2,47.4,45.8,99,92,76,30.12,30.02,13,8,23,0.09
2013-5-27,68.5,57.4,44.6,50.4,42.9,26.1,99,66,24,30.03,29.89,10,4,18,0.00
2013-5-28,75.4,62.2,49.3,54.9,46.2,35.3,92,60,34,29.90,29.63,14,4,28,0.00
2013-5-29,56.3,52.9,50.9,56.0,52.2,49.8,99,98,91,29.75,29.65,11,6,24,0.04
2013-5-30,68.2,58.2,51.8,57.7,53.6,50.7,99,86,57,29.99,29.75,4,2,8,0.04
2013-5-31,69.4,57.3,50.7,61.3,54.2,50.4,99,91,65,30.12,29.99,12,6,22,0.00
2013-6-1,56.3,51.5,48.4,52.3,49.8,47.8,99,94,79,30.36,30.12,9,6,19,0.00
2013-6-2,62.6,54.4,46.0,52.6,48.3,44.9,99,82,57,30.53,30.36,7,4,16,0.00
2013-6-3,60.4,53.3,45.3,50.3,46.4,42.9,99,79,57,30.57,30.51,9,4,21,0.00
2013-6-4,70.5,58.6,46.2,57.1,51.5,45.7,99,79,57,30.52,30.28,7,4,16,0.00
2013-6-5,77.5,62.8,49.1,56.4,51.6,45.1,99,71,37,30.30,30.19,8,3,15,0.00
2013-6-6,79.7,64.9,51.6,60.5,54.8,51.1,99,74,41,30.28,30.22,9,5,17,0.00
2013-6-7,79.0,65.7,54.0,60.4,54.9,44.1,99,74,32,30.31,30.25,8,5,18,0.00
2013-6-8,68.7,60.0,51.8,54.0,51.9,50.0,99,76,55,30.30,30.14,13,8,23,0.00
2013-6-9,64.0,56.0,52.3,51.2,49.7,47.3,91,81,62,30.16,30.03,13,7,22,0.00
2013-6-10,61.9,55.7,51.6,49.6,47.8,45.6,90,75,62,30.14,30.05,6,3,14,0.00
2013-6-11,77.7,62.0,46.6,56.9,51.1,45.9,99,72,39,30.15,30.10,4,1,11,0.00
2013-6-12,72.9,65.3,60.4,63.8,60.5,55.9,99,85,67,30.13,30.03,10,3,21,0.08
2013-6-13,66.6,62.0,57.2,66.3,58.4,52.7,99,88,74,30.09,29.99,20,9,36,0.06
2013-6-14,72.1,62.0,55.2,55.0,51.0,44.2,98,71,41,30.23,30.10,11,5,22,0.00
2013-6-15,65.8,59.2,51.1,55.9,49.8,42.8,97,74,46,30.09,29.88,23,11,45,0.04
2013-6-16,67.1,59.6,54.0,53.9,49.5,42.2,96,71,52,30.15,30.02,16,6,27,0.00
2013-6-17,78.6,65.0,51.6,59.8,53.7,48.7,93,70,46,30.17,30.02,11,5,21,0.00
2013-6-18,92.7,73.7,59.7,68.7,63.2,57.9,94,73,41,30.12,30.04,7,2,14,0.00
2013-6-19,79.9,71.5,64.0,68.0,65.5,63.3,98,82,63,30.09,29.97,9,4,18,0.00
2013-6-20,79.7,69.8,62.1,72.6,67.0,61.8,99,92,72,30.10,29.89,7,2,11,0.02
2013-6-21,68.7,62.3,59.9,68.4,61.9,59.6,99,98,94,30.05,29.83,15,6,30,0.13
2013-6-22,65.7,61.8,58.5,62.2,58.9,53.4,99,90,80,30.04,29.86,13,3,26,0.04
2013-6-23,67.3,59.7,55.4,61.1,56.7,53.8,99,90,74,30.01,29.83,21,8,34,0.25
2013-6-24,60.4,56.8,53.6,58.6,55.0,53.0,99,94,84,30.40,30.01,9,6,21,0.02
2013-6-25,66.6,59.0,52.0,54.1,49.9,45.0,99,75,50,30.54,30.39,6,3,15,0.00
2013-6-26,65.8,57.5,47.3,56.0,51.8,47.0,99,83,60,30.54,30.43,7,3,16,0.25
2013-6-27,59.9,55.8,51.6,55.1,51.9,48.9,99,88,70,30.43,30.26,10,4,17,0.04
2013-6-28,65.1,58.3,54.0,59.1,56.4,51.7,99,94,71,30.26,30.09,9,4,18,0.20
2013-6-29,64.4,59.7,53.2,60.2,54.5,49.1,99,84,62,30.39,30.07,8,4,17,0.11
2013-6-30,73.4,63.2,50.4,63.9,58.0,50.1,99,84,68,30.38,30.16,12,4,23,0.00
2013-7-1,67.6,62.4,56.7,60.9,57.5,52.7,99,85,62,30.16,30.12,13,6,27,0.00
2013-7-2,77.2,65.1,53.6,60.4,55.8,48.0,99,76,39,30.13,29.88,4,1,12,0.02
2013-7-3,65.5,62.0,60.3,63.8,61.6,60.0,99,98,93,30.09,29.80,7,2,19,0.20
2013-7-4,72.9,65.0,60.4,65.0,62.2,60.2,99,91,69,30.36,30.09,12,3,25,0.00
2013-7-5,76.3,66.8,60.4,64.9,60.3,55.4,99,82,55,30.56,30.36,6,3,14,0.00
2013-7-6,85.1,70.3,56.1,64.8,60.1,55.8,99,74,46,30.57,30.50,6,2,13,0.00
2013-7-7,82.2,71.2,59.0,64.1,58.7,43.8,99,71,29,30.59,30.54,10,4,16,0.00
2013-7-8,78.6,68.5,59.0,65.0,60.4,55.2,99,78,47,30.62,30.53,10,6,23,0.00
2013-7-9,79.9,68.6,56.8,59.6,54.2,47.3,99,65,38,30.54,30.35,8,5,16,0.00
2013-7-10,71.1,63.3,58.3,64.4,58.2,51.3,99,85,62,30.38,30.33,8,4,19,0.00
2013-7-11,67.3,61.2,56.8,53.9,52.2,49.2,87,73,54,30.37,30.33,7,3,16,0.00
2013-7-12,67.5,59.9,52.0,60.2,55.8,50.2,99,87,74,30.38,30.34,6,2,13,0.00
2013-7-13,74.1,64.5,57.6,60.5,58.1,54.4,99,82,55,30.38,30.34,7,2,13,0.00
2013-7-14,80.8,65.7,54.9,64.1,60.1,54.6,99,85,55,30.41,30.31,4,1,9,0.00
2013-7-15,80.6,69.5,59.2,65.0,60.0,54.4,99,76,43,30.35,30.29,8,2,13,0.00
2013-7-16,85.3,70.4,56.3,68.7,58.0,54.4,99,69,40,30.36,30.33,4,1,8,0.00
2013-7-17,81.5,71.9,61.2,66.7,61.2,56.3,94,72,49,30.38,30.34,6,2,13,0.00
2013-7-18,84.2,73.0,62.2,69.2,63.5,57.0,99,76,43,30.40,30.36,8,4,19,0.00
2013-7-19,81.5,71.4,60.4,66.3,61.3,56.9,99,74,51,30.40,30.34,12,6,24,0.00
2013-7-20,77.0,68.1,62.1,64.9,62.5,59.7,99,84,58,30.36,30.26,8,3,15,0.00
2013-7-21,95.2,78.3,60.8,66.6,61.4,53.7,99,64,29,30.28,30.16,5,2,12,0.00
2013-7-22,98.8,81.0,66.6,68.2,64.9,54.2,99,65,27,30.18,30.07,5,2,11,0.00
2013-7-23,93.4,78.7,67.3,71.9,65.9,55.4,99,69,31,30.09,29.99,5,2,10,0.00
2013-7-24,79.2,71.6,65.7,69.4,64.8,60.1,99,81,56,30.10,30.00,12,4,24,0.00
2013-7-25,88.3,73.5,60.6,69.9,63.8,59.3,99,75,45,30.11,30.03,10,2,22,0.00
2013-7-26,85.1,72.7,66.2,75.6,69.0,64.8,99,89,64,30.09,29.98,5,1,10,0.08
2013-7-27,81.5,72.2,66.0,75.1,69.8,65.7,99,93,73,29.99,29.77,8,2,26,0.32
2013-7-28,79.9,70.9,66.2,69.9,64.6,60.3,99,82,60,30.01,29.73,10,5,24,0.20
2013-7-29,74.5,69.3,64.0,66.9,64.0,61.2,99,84,66,30.10,29.99,15,6,29,0.00
2013-7-30,71.1,66.5,63.1,66.3,63.2,60.6,99,90,74,30.13,29.99,13,7,27,0.06
2013-7-31,73.0,69.1,66.0,70.0,67.0,63.5,99,93,75,30.17,30.02,14,8,27,0.01
2013-8-1,94.3,79.0,68.2,71.0,69.0,66.7,99,76,43,30.13,29.96,5,2,16,0.00
2013-8-2,98.2,81.0,68.5,76.4,70.0,65.8,99,72,43,29.96,29.84,7,2,14,0.00
2013-8-3,73.9,70.1,63.0,69.7,63.7,57.6,99,82,60,30.26,29.94,17,8,34,0.00
2013-8-4,84.6,70.9,58.6,64.7,60.0,55.6,99,73,42,30.29,30.22,5,2,12,0.00
2013-8-5,89.2,73.1,60.3,67.2,61.6,58.0,99,72,41,30.23,29.92,12,2,32,0.13
2013-8-6,75.9,69.3,62.4,67.2,63.3,60.0,99,83,64,30.14,29.96,12,5,26,0.01
2013-8-7,63.9,61.7,60.6,63.6,61.4,60.3,99,99,96,30.11,29.99,14,4,106,0.84
2013-8-8,75.0,66.5,60.3,62.3,60.6,55.8,99,84,54,30.27,30.08,8,3,15,0.12
2013-8-9,73.9,63.4,60.3,66.2,60.6,58.8,99,92,65,30.27,30.19,10,2,20,0.12
2013-8-10,66.4,66.4,66.4,66.1,66.1,66.1,99,99,99,30.29,30.20,2,2,4,0.00
2013-8-11,66.4,66.4,66.4,66.1,66.1,66.1,99,99,99,30.27,30.10,2,2,4,0.00
2013-8-12,66.4,66.4,66.4,66.1,66.1,66.1,99,99,99,30.12,30.07,2,2,4,0.00
2013-8-13,66.4,66.4,66.4,66.1,66.1,66.1,99,99,99,30.30,30.10,2,2,4,0.00
2013-8-14,66.4,66.4,66.4,66.1,66.1,66.1,99,99,99,30.34,30.29,2,2,4,0.00
2013-8-15,66.4,47.8,32.0,66.1,47.7,32.0,99,45,99,30.33,30.19,2,1,4,0.00
2013-8-16,32.0,32.0,32.0,32.0,32.0,32.0,0,0,100,30.19,30.09,0,0,0,0.00
2013-8-17,32.0,32.0,32.0,32.0,32.0,32.0,0,0,100,30.12,29.96,0,0,0,0.00
2013-8-18,32.0,32.0,32.0,32.0,32.0,32.0,0,0,100,30.01,29.89,0,0,0,0.00
2013-8-19,32.0,32.0,32.0,32.0,32.0,32.0,0,0,100,30.40,29.99,0,0,0,0.00
2013-8-20,32.0,32.0,32.0,32.0,32.0,32.0,0,0,100,30.50,30.40,0,0,0,0.00
2013-8-21,32.0,32.0,32.0,32.0,32.0,32.0,0,0,100,30.46,30.30,0,0,0,0.00
2013-8-22,32.0,32.0,32.0,32.0,32.0,32.0,0,0,100,30.30,30.21,0,0,0,0.00
2013-8-23,32.0,32.0,32.0,32.0,32.0,32.0,0,0,100,30.23,30.05,0,0,0,0.00
2013-8-24,32.0,32.0,32.0,32.0,32.0,32.0,0,0,100,30.05,29.93,0,0,0,0.00
2013-8-25,32.0,32.0,32.0,32.0,32.0,32.0,0,0,100,30.07,29.94,0,0,0,0.00
2013-8-28,32.0,32.0,32.0,32.0,32.0,32.0,0,0,100,30.28,30.27,0,0,0,0.00
2013-9-14,32.0,32.0,32.0,32.0,32.0,32.0,0,0,100,30.09,29.87,0,0,0,0.00
2013-9-16,52.3,43.8,32.0,47.7,42.1,32.0,99,63,81,29.95,29.63,10,3,30,0.12
2013-9-17,57.2,52.1,48.6,53.0,49.4,46.1,99,91,70,29.99,29.75,13,5,28,0.30
2013-9-18,62.2,54.0,49.6,56.8,51.3,47.1,99,92,67,30.14,29.75,10,2,19,0.13
2013-9-19,59.9,55.0,49.5,56.6,52.0,46.9,99,91,65,30.27,30.14,12,5,24,0.22
2013-9-20,63.9,58.5,51.4,58.6,55.4,50.2,99,90,70,30.59,30.17,9,4,19,0.01
2013-9-21,68.5,59.1,50.7,58.8,55.0,50.4,99,87,61,30.71,30.59,7,2,14,0.00
2013-9-22,68.7,62.4,58.8,66.3,61.8,58.4,99,98,90,30.75,30.70,8,4,17,0.00
2013-9-23,70.2,63.3,57.4,65.9,61.4,57.1,99,94,75,30.75,30.57,7,3,18,0.00
2013-9-24,69.4,64.2,59.2,64.0,59.7,58.4,99,86,72,30.45,29.86,4,2,9,0.00
2013-9-25,72.5,61.5,55.0,62.7,58.3,54.8,99,90,64,29.93,29.74,3,1,98,0.40
2013-9-26,65.3,59.2,54.9,59.3,51.6,46.6,99,77,57,30.04,29.92,10,4,19,0.00
2013-9-27,68.0,55.5,44.8,51.3,47.7,44.5,99,77,51,30.05,29.95,5,2,12,0.00
2013-9-28,68.7,55.9,46.2,48.5,45.1,40.6,94,71,37,29.95,29.80,6,3,16,0.00
2013-9-29,68.7,56.9,47.3,48.1,46.0,43.4,94,69,44,29.82,29.71,7,5,20,0.00
2013-9-30,60.4,51.6,46.6,46.4,44.6,43.7,91,78,57,29.96,29.76,5,3,14,0.00
2013-10-1,68.2,54.5,42.4,47.5,43.9,40.7,95,70,43,30.07,29.96,51,3,106,0.00
2013-10-2,65.5,53.7,44.1,45.6,42.6,40.4,88,67,41,30.13,30.07,5,3,17,0.00
2013-10-3,66.6,56.3,47.8,51.3,43.7,40.6,78,64,45,30.14,29.83,7,3,17,0.00
2013-10-4,73.0,62.5,54.5,66.8,59.5,51.8,99,90,74,29.89,29.81,10,5,29,0.51
2013-10-6,45.1,43.5,41.9,44.9,43.3,41.6,99,99,99,30.07,30.02,2,1,4,0.06
2013-10-7,47.8,44.6,41.9,47.6,44.3,41.6,99,99,99,30.09,30.06,5,3,8,0.00
2013-10-8,57.4,55.4,52.0,50.3,47.6,46.4,94,75,69,30.07,29.97,7,4,11,0.00
2013-10-9,53.8,51.6,49.6,49.9,48.9,47.4,99,91,79,29.99,29.92,2,1,4,0.11
2013-10-10,49.8,49.5,49.3,49.6,49.2,49.0,99,99,99,29.91,29.83,7,4,11,0.50
2013-10-11,49.5,49.1,48.7,49.2,48.8,48.5,99,99,99,29.82,29.72,8,6,17,0.11
2013-10-12,50.5,50.1,49.6,50.3,49.9,49.4,99,99,99,29.72,29.65,8,5,17,0.02
2013-10-13,49.3,47.6,46.4,49.0,47.3,46.1,99,99,99,29.80,29.65,18,11,37,1.28
2013-10-14,53.1,51.1,40.6,52.6,50.2,-11.6,99,98,10,29.83,29.70,9,5,101,0.09
2013-10-15,54.0,51.2,47.7,53.7,50.9,47.4,99,99,97,29.76,29.62,12,2,21,0.19
2013-10-16,59.4,51.1,43.7,57.4,50.2,43.4,99,97,84,29.88,29.71,7,2,18,0.04
2013-10-17,62.4,57.4,50.0,57.5,54.2,49.7,99,90,72,29.94,29.71,18,9,35,0.01
2013-10-18,55.9,53.1,48.6,55.7,52.8,48.3,99,99,99,30.02,29.90,4,1,9,0.00
2013-10-19,63.5,56.1,50.0,60.2,55.0,49.7,99,96,81,29.90,29.66,9,3,20,0.44
2013-10-20,66.0,59.8,55.4,61.8,57.9,55.1,99,94,79,29.76,29.69,16,4,35,0.04
2013-10-21,64.9,60.0,55.6,61.6,58.6,55.3,99,95,87,29.81,29.73,9,4,22,0.00
2013-10-22,74.8,64.8,58.1,63.1,60.6,57.8,99,87,64,29.73,29.45,10,6,22,0.00
2013-10-23,66.4,62.1,57.4,62.2,59.2,55.3,99,90,75,29.74,29.41,18,8,41,0.00
2013-10-24,68.9,56.0,48.2,57.1,51.3,46.1,99,86,46,29.99,29.75,8,2,16,0.00
2013-10-25,65.1,58.8,53.2,63.2,58.0,51.9,99,97,92,29.92,29.70,6,3,21,0.02
2013-10-26,66.7,61.8,59.0,61.8,58.7,55.2,99,90,70,29.75,29.66,13,5,30,0.00
2013-10-27,59.7,58.7,57.4,54.7,53.6,51.4,89,83,75,29.48,29.43,19,13,48,0.14
2013-10-28,62.2,56.5,51.6,58.7,54.6,49.0,99,94,80,29.55,29.09,15,8,53,0.24
2013-10-29,57.7,51.7,46.2,51.6,49.2,44.9,99,91,70,29.91,29.55,17,8,34,0.19
2013-10-30,57.2,50.7,46.4,50.7,46.9,44.2,99,87,67,30.15,29.91,10,4,23,0.01
2013-10-31,56.8,52.1,47.7,53.5,49.1,46.3,99,90,75,30.15,29.94,12,4,28,0.00
2013-11-1,54.7,53.2,50.7,54.4,52.8,50.5,99,99,93,29.95,29.60,7,4,24,0.02
2013-11-2,56.5,51.9,48.7,55.7,51.3,48.5,99,98,85,29.59,29.36,9,2,32,0.32
2013-11-3,53.1,50.6,47.3,50.7,46.1,41.7,97,85,71,29.47,29.35,20,9,35,0.13
2013-11-4,48.9,48.6,47.7,47.8,46.2,45.2,99,91,87,29.99,29.35,10,5,19,0.71
2013-11-5,48.9,46.2,41.4,48.7,45.5,41.1,99,97,87,30.03,29.79,8,3,27,0.24
2013-11-6,48.9,48.9,48.9,48.7,48.7,48.7,99,99,99,29.79,29.79,3,3,11,0.00
2013-11-7,55.0,52.4,49.5,53.1,49.9,48.7,99,91,83,30.36,30.29,6,2,14,0.31
2013-11-8,55.0,49.1,45.1,51.5,48.2,44.9,99,97,80,30.39,30.13,5,2,11,0.06
2013-11-9,52.5,48.8,43.5,49.6,45.7,42.4,99,89,73,30.37,30.13,17,7,34,0.46
2013-11-10,53.6,45.8,41.9,46.6,42.5,39.8,99,89,70,30.82,30.17,8,2,17,0.46
2013-11-11,51.3,48.1,42.1,47.2,42.6,39.1,99,82,70,30.95,30.83,7,3,21,0.01
2013-11-12,75.6,47.7,44.4,75.3,46.7,40.3,99,96,76,30.99,30.78,5,3,23,0.02
2013-11-13,68.2,46.3,40.8,65.8,44.0,40.6,99,92,67,31.10,30.89,6,1,13,0.01
2013-11-14,51.1,46.9,44.6,49.6,45.7,43.4,99,96,85,30.88,30.60,8,4,17,0.28
2013-11-15,55.9,46.3,34.7,49.6,44.5,33.9,99,94,72,31.10,30.80,8,2,14,0.01
2013-11-16,45.9,42.5,37.8,45.6,41.7,-13.4,99,98,10,31.09,30.95,3,1,9,0.01
2013-11-17,47.5,45.6,44.1,47.2,45.4,43.8,99,99,99,30.94,30.67,3,1,7,0.00
2013-11-18,46.2,43.8,41.9,44.7,43.1,41.6,99,97,88,30.67,30.32,7,3,19,0.00
2013-11-19,47.3,43.7,38.5,46.8,43.0,38.1,99,97,89,30.48,30.25,9,2,17,0.15
2013-11-20,43.3,38.9,34.9,41.3,37.4,32.7,99,95,70,30.48,29.95,11,4,24,0.20
2013-11-21,42.6,38.4,35.1,39.0,37.4,34.8,99,96,85,30.43,29.95,11,6,19,0.01
2013-11-22,44.4,40.3,34.5,42.6,39.3,34.3,99,96,88,30.66,30.43,12,4,24,0.00
2013-11-23,49.1,42.9,39.4,43.4,40.4,36.7,99,91,73,30.80,30.66,7,2,17,0.00
2013-11-24,48.6,45.0,41.5,47.6,41.9,38.3,99,89,72,31.02,30.79,9,3,22,0.00
2013-11-25,48.4,43.2,40.8,42.7,39.8,36.7,99,88,76,31.16,31.02,7,3,13,0.00
2013-11-26,47.8,43.8,40.5,44.3,42.4,40.2,99,95,79,31.20,31.13,5,2,9,0.00
2013-11-27,48.9,45.5,41.4,47.6,44.8,41.1,99,97,88,31.12,31.07,8,3,19,0.00
2013-11-28,51.6,49.2,46.6,51.4,48.5,43.6,99,97,84,31.11,31.07,4,2,8,0.01
2013-11-29,49.8,46.8,43.9,49.1,44.1,38.7,99,90,74,31.08,30.54,17,8,34,0.06
2013-11-30,54.3,46.2,42.6,48.5,44.1,39.6,99,93,63,30.97,30.51,12,4,28,0.05
2013-12-1,49.8,46.1,41.7,49.0,45.0,41.5,99,96,82,31.12,30.95,5,2,11,0.00
2013-12-2,51.4,43.2,36.7,44.3,40.7,36.4,99,92,66,31.18,31.05,8,2,11,0.00
2013-12-3,51.1,39.3,32.5,49.6,38.5,32.3,99,97,80,31.05,30.88,4,1,8,0.01
2013-12-4,48.0,43.7,40.3,47.8,42.1,37.6,99,94,83,30.98,30.82,9,4,17,0.02
2013-12-5,50.2,43.1,38.7,47.8,39.5,31.8,99,87,63,30.98,30.34,34,14,62,0.08
2013-12-6,43.2,40.7,36.1,37.6,33.3,27.8,99,76,55,30.89,30.58,21,12,42,0.27
2013-12-7,49.1,44.5,40.5,48.7,42.3,31.3,99,92,65,30.90,30.81,10,5,20,0.11
2013-12-8,50.5,48.2,46.0,50.1,47.9,45.8,99,99,96,30.83,30.78,18,10,31,0.02
2013-12-9,52.9,49.4,46.4,50.6,48.8,46.1,99,98,90,31.08,30.82,18,10,34,0.00
2013-12-10,51.1,40.8,34.9,45.4,38.6,34.6,99,93,66,31.13,31.08,4,1,10,0.01
2013-12-11,35.8,34.0,30.9,35.5,33.8,30.7,99,99,99,31.11,31.02,6,2,12,0.01
2013-12-12,43.7,36.5,32.5,40.2,35.7,32.3,99,97,82,31.03,30.86,6,3,17,0.01
2013-12-13,42.1,37.4,34.2,41.8,37.2,33.9,99,99,99,30.88,30.72,6,2,12,0.00
2013-12-14,50.0,44.8,40.3,47.7,43.8,40.0,99,96,87,30.91,30.72,11,4,21,0.08
2013-12-15,50.2,47.7,44.1,49.4,45.8,40.4,99,93,79,30.88,30.76,14,6,32,0.04
2013-12-16,54.9,51.0,48.4,47.8,45.8,42.6,97,83,65,30.77,30.68,11,6,33,0.00
2013-12-17,51.6,45.3,42.6,47.5,44.3,42.4,99,96,84,30.86,30.69,7,3,19,0.04
2013-12-18,50.5,47.1,42.6,47.6,45.4,42.4,99,94,82,30.69,30.18,10,6,25,0.01
2013-12-19,49.8,49.6,47.8,49.6,49.3,46.7,99,99,90,30.44,30.04,11,8,27,0.25
2013-12-20,49.8,49.8,49.8,49.6,49.6,49.6,99,99,99,30.86,30.45,8,8,19,0.00
2013-12-21,49.8,46.2,45.5,49.6,43.7,42.2,99,91,88,30.82,30.47,12,8,27,0.00
2013-12-22,45.5,45.5,45.5,42.5,42.5,42.5,89,89,89,30.50,30.37,8,8,27,0.00
2013-12-23,54.7,53.3,51.6,45.3,44.5,43.9,79,72,68,30.50,30.47,11,7,21,0.00
2013-12-24,54.5,52.6,50.9,44.8,43.4,42.2,79,71,66,30.52,30.45,11,6,24,0.00
2013-12-25,51.6,51.3,50.7,47.4,46.6,45.1,86,84,81,30.52,30.50,7,4,16,0.00
2013-12-26,51.1,49.3,46.6,47.7,46.0,44.9,94,88,84,30.50,30.48,8,4,13,0.00
2013-12-27,47.5,45.4,43.7,45.3,44.2,43.4,99,96,88,30.58,30.49,7,3,12,0.01
2013-12-28,45.0,42.8,39.9,44.3,42.5,39.7,99,99,97,30.63,29.92,4,2,11,0.02
2013-12-29,48.0,42.2,38.7,44.0,41.0,38.4,99,96,80,30.53,30.03,13,4,22,0.04
2013-12-30,46.2,42.5,38.5,44.4,40.8,38.2,99,94,82,30.54,30.30,11,6,30,0.04
2013-12-31,49.8,45.3,42.4,43.9,41.8,37.5,99,88,68,30.38,30.07,13,6,28,0.13
2014-1-1,48.9,45.4,41.9,48.7,44.1,41.6,99,95,81,30.09,29.70,15,8,27,0.39
2014-1-2,51.8,49.4,45.7,49.6,47.2,43.8,99,92,84,29.97,29.63,15,6,32,0.05